Theta_e
288 289 290 291 292 295 297 299 301 303 305 308 313 319 325 327 326 323 324 327 333 339 339 338 341 340 340 340 338 337 337 337 338 338 338 339 339 338 339 340 340 340 340
287 288 288 289 290 292 294 296 299 301 303 305 307 310 316 322 327 324 324 325 331 335 340 340 341 341 340 340 339 337 336 337 337 337 337 338 338 338 338 339 339 340 339
286 286 287 287 289 290 292 294 297 300 302 304 303 305 309 316 320 324 323 324 326 329 335 340 342 342 341 340 340 337 335 336 336 337 337 337 337 338 337 338 338 339 339
285 285 286 285 287 288 289 290 292 295 300 302 304 303 304 307 315 319 323 324 324 326 330 335 340 342 341 340 340 338 335 335 336 336 336 336 337 337 337 337 337 338 339
285 284 284 285 286 286 286 287 287 289 292 295 297 300 303 306 309 317 320 323 323 324 326 328 331 334 338 340 340 339 337 334 335 335 336 336 336 336 336 336 336 338 338
284 283 283 283 285 285 285 286 285 287 288 291 293 296 301 303 306 310 316 325 324 323 324 325 327 329 331 337 340 339 337 336 334 334 335 336 336 336 336 336 336 336 338
283 282 283 283 284 284 283 285 285 286 286 289 292 296 300 308 310 312 316 323 324 324 322 323 325 328 331 332 336 339 339 338 336 334 333 334 335 335 336 336 336 336 337
282 283 282 282 283 283 283 283 284 285 286 288 287 289 294 302 308 316 321 322 322 323 322 322 323 326 327 329 329 333 336 339 338 335 333 332 334 335 335 335 335 335 336
281 282 282 282 282 283 282 282 284 285 283 286 286 288 289 296 291 303 311 321 321 320 321 322 322 324 325 326 327 328 328 334 338 338 335 333 332 334 335 334 334 334 335
279 282 282 282 282 282 282 282 284 283 284 282 286 288 289 289 287 288 298 305 304 317 320 320 320 321 324 324 322 321 322 327 336 337 337 334 333 333 334 334 333 333 334
279 280 281 281 281 282 282 282 282 282 283 283 284 285 286 287 288 289 287 291 295 300 300 308 317 322 322 322 322 322 321 326 334 336 336 336 334 332 333 332 331 332 334
278 279 280 280 281 281 281 281 282 282 282 283 284 285 285 284 286 287 286 287 289 294 299 301 309 319 322 322 320 317 318 323 329 335 334 336 335 333 333 331 331 333 334
276 277 278 279 279 280 281 282 281 282 282 282 282 283 285 286 287 286 286 284 285 288 290 294 296 310 320 322 321 314 315 320 324 331 335 336 334 332 332 333 332 333 333
275 277 277 278 279 281 281 281 281 281 282 282 281 282 283 284 286 287 286 286 284 285 287 288 292 296 300 309 320 313 319 316 320 325 331 333 331 329 329 331 331 332 331
277 277 277 277 278 279 280 280 280 280 281 281 281 281 282 283 285 286 286 287 286 282 284 286 287 296 302 311 316 320 319 317 317 321 324 326 326 325 325 327 327 328 327
276 276 277 277 278 279 279 279 279 280 280 281 281 281 281 282 283 284 285 286 286 285 282 288 289 291 295 298 305 308 309 311 314 319 321 322 322 322 322 323 323 324 325
275 276 276 277 277 278 279 279 279 280 280 280 281 280 281 282 282 283 284 285 285 286 283 286 289 291 292 293 294 298 303 306 319 314 319 320 321 321 320 321 321 321 322
275 275 276 276 277 278 279 279 279 280 281 280 281 281 281 282 281 282 282 282 283 284 284 283 287 289 291 293 294 295 298 303 306 315 315 318 319 319 319 319 318 318 319
274 275 276 276 277 278 278 279 281 281 281 281 282 281 281 281 281 282 282 282 283 284 284 283 283 287 289 293 294 296 297 300 304 305 314 315 318 318 318 318 317 316 316
272 273 275 276 277 278 278 280 281 281 282 283 283 283 283 283 282 282 282 282 283 282 283 283 283 284 286 289 293 293 293 297 298 303 311 314 316 316 316 318 315 313 313
271 272 273 275 276 277 278 279 281 282 282 283 284 285 285 286 287 287 285 283 283 282 283 282 282 283 284 286 287 290 291 292 295 302 307 317 315 317 317 315 315 310 311
267 268 271 272 273 277 280 282 282 281 282 283 283 284 285 286 286 288 289 290 289 284 282 282 282 282 283 285 288 288 289 290 289 299 301 308 316 315 317 318 315 312 311
262 264 267 270 272 274 280 282 283 282 282 283 283 283 283 284 285 284 286 288 290 291 292 286 282 283 283 286 288 290 291 292 292 297 304 306 315 313 317 317 312 311 310
261 262 266 267 269 273 280 281 283 281 281 282 282 282 282 283 284 285 284 284 284 285 286 288 288 286 286 287 289 290 291 291 293 296 301 300 314 312 315 316 310 310 310
259 261 262 265 267 269 279 280 281 279 280 281 282 282 282 282 285 286 283 282 283 284 288 290 290 291 292 291 291 290 288 288 288 292 299 298 301 312 314 315 315 309 309
260 264 265 264 270 271 277 280 281 280 278 279 281 281 282 281 283 284 281 281 279 281 283 284 286 289 291 291 292 290 293 290 291 292 298 299 302 312 308 314 315 313 311
Wind_Speed
6 5 5 5 5 6 6 6 5 5 6 6 6 6 5 4 4 3 3 8 9 7 9 7 7 8 8 9 9 7 6 7 7 8 9 8 8 8 7 8 7 10 13
4 5 5 5 5 5 6 5 5 5 5 5 5 6 6 6 4 5 3 4 8 8 8 11 11 11 11 11 10 9 8 6 7 6 8 9 7 7 5 6 6 9 11
6 5 5 5 5 5 6 5 6 4 4 4 4 5 5 5 5 4 4 4 4 7 8 12 11 13 13 13 11 10 8 8 7 7 6 7 9 7 5 4 4 9 11
7 5 5 5 5 5 5 5 4 5 4 4 4 4 4 5 6 4 4 4 4 4 6 10 10 10 12 13 12 11 9 8 9 9 8 7 7 8 7 4 4 7 10
7 5 5 5 5 4 5 4 3 3 3 5 6 5 3 4 6 5 5 5 6 5 4 5 9 8 9 13 14 13 12 10 10 10 11 9 7 7 8 6 3 7 9
7 5 4 4 4 3 4 5 4 3 2 5 7 7 6 6 5 5 6 6 6 6 6 6 4 4 9 12 13 14 15 14 12 11 11 11 10 9 9 9 6 5 10
5 5 4 4 4 4 4 5 3 4 3 5 4 4 4 6 7 6 5 7 7 8 7 6 5 4 4 11 12 12 14 16 16 13 13 12 11 12 11 10 9 7 8
6 5 4 4 5 4 6 5 5 3 3 5 3 2 4 5 4 4 5 5 7 4 7 8 8 7 6 5 8 12 12 15 19 17 15 15 14 14 13 13 11 10 9
5 5 5 4 4 3 3 4 4 6 3 3 5 0 2 2 4 4 5 3 4 4 4 6 8 9 8 7 7 10 13 13 15 19 19 17 16 16 15 14 13 11 10
4 4 4 4 4 3 4 4 5 3 3 3 3 4 1 0 2 6 4 4 6 6 3 2 5 8 9 8 9 10 12 13 16 19 20 19 18 19 18 16 14 14 12
4 4 4 4 3 2 3 4 4 4 2 2 1 3 2 2 3 3 4 6 6 4 7 6 6 6 8 8 8 10 15 17 19 20 22 22 20 20 22 20 17 17 16
3 4 5 4 4 3 3 3 4 4 3 3 2 2 2 1 2 2 3 3 5 7 6 7 6 5 7 7 10 12 15 18 20 21 24 24 23 21 22 22 20 20 18
2 4 4 4 4 4 4 3 3 3 4 3 3 3 3 4 4 4 4 4 5 4 6 6 8 5 5 7 8 13 14 19 21 22 25 26 23 21 21 21 22 21 19
3 4 4 3 5 5 4 4 3 3 4 4 5 4 4 4 4 5 5 4 6 5 4 9 5 8 8 8 8 13 13 17 21 24 25 26 22 19 19 21 22 21 22
3 3 4 5 5 5 5 4 4 5 4 4 5 5 5 5 5 5 6 6 6 5 7 3 4 4 4 6 7 8 12 16 21 23 25 25 21 18 19 20 19 15 17
4 5 5 5 5 6 5 5 5 5 5 4 5 6 6 6 6 6 6 7 8 10 12 1 3 5 9 10 9 6 10 14 18 24 26 24 22 19 20 20 18 15 14
5 6 6 6 7 7 5 5 7 8 8 7 7 8 9 8 7 6 6 8 9 10 16 13 11 11 14 15 15 13 9 10 11 20 25 26 26 25 22 22 21 20 17
6 7 7 6 7 8 7 8 8 9 9 10 9 8 9 9 9 9 8 11 11 11 13 24 13 12 15 13 14 16 14 11 12 15 24 26 28 27 24 23 21 20 18
6 7 7 7 8 9 8 9 11 11 10 10 11 12 12 11 11 9 10 10 10 11 13 16 16 12 13 11 13 14 15 14 12 17 21 28 29 29 27 26 23 22 23
6 7 8 9 10 9 10 11 11 12 12 11 12 13 14 14 15 14 13 14 13 13 13 15 16 15 13 13 13 13 12 11 13 13 16 19 23 27 26 29 26 23 22
5 5 7 8 9 9 8 9 11 12 12 13 13 14 15 18 26 24 14 15 16 15 14 15 17 15 15 13 17 10 14 11 15 12 11 12 12 14 16 26 23 24 24
5 3 5 6 8 8 16 19 18 12 14 14 13 14 15 23 24 32 35 37 30 19 21 17 17 20 22 17 14 13 14 14 17 11 15 14 13 15 16 16 27 26 26
2 5 6 5 8 8 17 19 20 12 12 13 15 15 16 14 24 20 28 38 38 41 42 25 26 25 22 18 15 17 17 15 16 11 11 15 13 15 15 16 27 27 28
3 4 5 6 7 8 17 19 21 12 12 14 16 17 19 20 19 23 23 25 26 28 31 26 30 29 24 20 19 17 16 14 14 14 13 17 14 15 14 14 24 29 30
3 3 4 6 7 9 18 20 17 10 12 14 15 16 18 19 25 31 24 26 27 27 27 41 44 44 41 38 28 16 18 17 17 17 15 15 15 13 13 14 15 27 29
4 4 6 5 10 9 17 20 18 8 10 10 14 14 23 24 31 31 24 23 27 27 24 26 21 36 39 32 39 28 14 16 16 14 14 14 16 15 8 13 14 12 14
Wind_Direction
35 33 17 19 20 7 5 0 5 4 356 356 2 358 338 256 257 268 230 220 224 231 221 222 219 216 199 180 165 164 153 140 132 126 117 101 100 100 86 99 97 104 105
24 34 34 20 19 4 1 355 356 358 350 347 348 351 330 325 246 233 231 250 237 238 237 218 208 219 215 201 183 177 172 160 149 145 138 126 112 110 111 112 113 118 119
33 28 32 31 10 360 359 5 1 347 2 343 335 332 316 327 328 263 232 230 220 237 253 264 215 213 216 212 200 189 191 179 170 158 160 147 133 124 120 100 101 128 133
30 35 33 24 1 5 9 2 10 347 355 351 330 308 304 300 299 301 246 232 220 225 225 240 261 239 217 218 209 203 197 210 188 172 176 174 162 144 143 137 128 149 142
28 34 31 13 360 7 18 2 353 5 343 344 319 306 270 265 271 285 282 227 224 209 215 218 242 250 246 219 216 210 200 210 218 197 184 184 197 178 158 160 160 171 166
24 30 28 19 10 9 8 3 10 336 351 343 309 295 281 260 242 237 256 237 218 205 210 217 207 236 234 223 229 215 216 202 220 227 203 196 199 212 189 170 174 186 175
12 35 20 11 10 25 10 5 340 9 0 341 308 323 284 245 232 223 223 236 221 211 194 204 214 211 217 218 218 229 226 213 207 224 236 205 202 204 212 192 183 190 203
14 29 18 12 17 10 11 8 18 356 358 5 19 287 336 326 7 260 225 223 224 222 217 198 213 206 208 209 217 218 222 227 213 214 226 234 206 202 217 210 192 194 205
8 12 10 9 10 19 12 358 18 31 6 334 11 24 352 332 321 332 11 292 259 208 217 224 221 218 212 208 207 217 215 216 226 219 216 227 232 214 212 216 207 202 204
7 14 11 6 4 0 11 351 18 360 17 7 331 15 336 234 5 327 323 346 350 359 327 261 225 225 220 216 212 210 210 216 218 222 226 220 229 228 218 210 218 218 213
7 4 7 359 1 0 355 353 353 347 350 338 334 348 340 302 251 225 288 320 336 332 318 307 304 253 235 227 218 221 211 214 221 223 229 229 223 228 225 219 222 228 222
351 3 3 352 338 339 345 340 327 317 305 284 274 260 250 308 342 1 290 290 307 303 326 299 290 275 246 228 230 221 214 217 218 223 229 231 229 219 225 225 224 226 222
353 342 340 339 321 311 309 301 295 293 284 280 268 259 255 255 263 277 270 274 268 294 296 292 281 291 281 242 230 220 224 219 217 218 225 231 229 218 218 229 226 221 223
297 298 293 292 286 285 288 267 255 253 247 250 257 254 261 259 260 259 254 293 296 260 257 258 288 285 286 283 251 218 231 222 224 220 221 226 226 216 216 220 232 224 215
289 307 305 287 281 282 275 275 268 261 248 247 255 253 251 256 255 253 253 255 252 295 294 244 264 254 264 274 278 247 230 230 225 223 221 220 220 212 211 213 218 222 214
293 297 293 287 287 286 285 278 273 264 262 254 254 251 244 246 249 248 249 251 245 256 270 81 283 323 319 311 301 310 318 274 224 222 219 214 214 209 207 205 206 215 216
303 304 297 292 291 285 276 262 267 274 268 266 257 257 260 255 250 245 245 246 246 246 260 271 273 277 275 278 284 288 282 290 267 227 225 216 217 213 209 207 205 206 215
295 296 298 290 283 282 283 278 277 277 274 276 274 263 263 261 257 250 245 248 247 247 259 275 269 269 262 265 269 272 275 265 267 267 222 224 217 218 210 207 206 198 200
294 301 305 294 290 288 285 274 273 276 274 277 273 267 262 260 261 256 252 251 250 249 253 265 272 268 269 262 259 260 262 262 257 267 251 220 222 216 212 208 202 205 196
300 303 302 299 297 293 286 284 279 274 269 266 266 266 262 257 255 255 251 251 251 250 250 256 265 265 258 256 254 251 260 258 259 248 263 232 222 223 213 212 204 198 198
284 284 296 295 295 294 288 285 270 269 269 271 268 265 263 260 259 257 252 250 249 251 250 250 257 258 252 244 240 241 252 259 261 254 248 241 218 222 217 217 209 195 197
286 282 295 290 294 297 301 299 295 285 280 277 279 276 271 271 271 269 267 263 251 244 244 246 250 248 249 245 239 233 240 238 252 230 233 254 219 214 220 213 214 203 202
294 287 289 284 290 291 304 302 300 292 286 282 280 279 276 269 272 266 262 262 258 252 245 240 243 244 245 244 249 239 231 232 239 254 244 235 223 222 216 218 206 202 199
277 288 293 292 289 294 313 310 306 296 285 280 277 278 277 277 273 275 270 262 255 249 247 244 242 244 242 237 245 245 242 249 257 250 252 247 247 216 209 217 201 201 201
285 272 270 292 289 293 314 319 309 297 290 284 283 282 284 282 281 281 275 270 266 259 252 247 243 245 240 235 231 236 232 231 239 236 225 240 247 222 202 211 211 205 204
246 270 294 272 296 304 311 317 317 304 298 294 290 295 296 295 295 289 278 272 268 261 251 246 244 241 238 234 228 236 243 230 228 239 223 232 223 227 195 208 210 201 205